This is the latest recevied weather packets stored in our database for station/object N9WHM. If no packets are shown the sender has not sent any weather packets the latest 1 day(s).
| Time | Temp. | Humidity | Pressure | Rain* | Wind** | Luminosity | Snow |
|---|---|---|---|---|---|---|---|
| 1778008086 | 12.78° C | 35% | 1013.3 hPa | 0 mm | 5.81 m/s, 295° | 379 W/m² | - |
| 1778007781 | 13.33° C | 35% | 1013.5 hPa | 0 mm | 4.47 m/s, 330° | 870 W/m² | - |
| 1778007477 | 13.89° C | 34% | 1013.5 hPa | 0 mm | 5.36 m/s, 312° | 849 W/m² | - |
| 1778007174 | 13.33° C | 35% | 1013.5 hPa | 0 mm | 5.81 m/s, 326° | 868 W/m² | - |
| 1778006870 | 13.33° C | 37% | 1013.6 hPa | 0 mm | 3.58 m/s, 351° | 829 W/m² | - |
| 1778006568 | 12.78° C | 35% | 1013.4 hPa | 0 mm | 5.36 m/s, 320° | 640 W/m² | - |
| 1778006264 | 12.78° C | 35% | 1013.5 hPa | 0 mm | 3.13 m/s, 6° | 301 W/m² | - |
| 1778005962 | 12.78° C | 36% | 1013.5 hPa | 0 mm | 4.92 m/s, 348° | 425 W/m² | - |
| 1778005658 | 12.78° C | 37% | 1013.4 hPa | 0 mm | 3.13 m/s, 307° | 858 W/m² | - |
| 1778005355 | 12.78° C | 37% | 1013.4 hPa | 0 mm | 3.13 m/s, 335° | 312 W/m² | - |
| 1778005051 | 12.22° C | 36% | 1013.4 hPa | 0 mm | 2.68 m/s, 300° | 740 W/m² | - |
| 1778004749 | 12.78° C | 36% | 1013.7 hPa | 0 mm | 2.68 m/s, 350° | 745 W/m² | - |
| 1778004445 | 11.67° C | 38% | 1013.6 hPa | 0 mm | 3.58 m/s, 338° | 587 W/m² | - |
| 1778004142 | 11.67° C | 37% | 1013.7 hPa | 0 mm | 2.68 m/s, 352° | 346 W/m² | - |
| 1778003833 | 11.67° C | 38% | 1013.8 hPa | 0 mm | 4.47 m/s, 5° | 369 W/m² | - |
| 1778003529 | 12.22° C | 37% | 1013.7 hPa | 0 mm | 4.02 m/s, 331° | 385 W/m² | - |
| 1778003225 | 11.67° C | 39% | 1013.7 hPa | 0 mm | 2.24 m/s, 354° | 375 W/m² | - |
| 1778002923 | 11.67° C | 37% | 1013.6 hPa | 0 mm | 2.68 m/s, 281° | 355 W/m² | - |
| 1778002619 | 12.22° C | 38% | 1013.7 hPa | 0 mm | 3.13 m/s, 339° | 505 W/m² | - |
| 1778002316 | 12.78° C | 35% | 1013.7 hPa | 0 mm | 3.13 m/s, 293° | 600 W/m² | - |
| 1778002013 | 12.22° C | 37% | 1013.6 hPa | 0 mm | 1.79 m/s, 340° | 542 W/m² | - |
| 1778001709 | 11.67° C | 38% | 1013.6 hPa | 0 mm | 1.34 m/s, 348° | 647 W/m² | - |
| 1778001404 | 11.67° C | 37% | 1013.6 hPa | 0 mm | 3.13 m/s, 330° | 535 W/m² | - |
| 1778001101 | 11.67° C | 38% | 1013.9 hPa | 0 mm | 3.13 m/s, 40° | 584 W/m² | - |
| 1778000798 | 12.22° C | 37% | 1013.7 hPa | 0 mm | 3.13 m/s, 4° | 699 W/m² | - |
* Rain latest hour (hover to see other rain measurements)
** Current wind speed in m/s (hover to see current wind gust speed)